TimeCST,TemperatureF,Dew PointF,Humidity,Sea Level PressureIn,VisibilityMPH,Wind Direction,Wind SpeedMPH,Gust SpeedMPH,PrecipitationIn,Events,Conditions,WindDirDegrees,DateUTC
12:53 AM,32.0,25.0,75,30.25,8.0,North,6.9,-,N/A,,Overcast,350,2013-03-01 06:53:00
1:53 AM,30.9,24.1,76,30.26,8.0,NNW,5.8,-,N/A,,Mostly Cloudy,340,2013-03-01 07:53:00
2:53 AM,30.9,25.0,79,30.26,8.0,NNW,5.8,-,N/A,,Overcast,340,2013-03-01 08:53:00
3:53 AM,28.9,25.0,85,30.26,7.0,NW,6.9,-,N/A,,Overcast,310,2013-03-01 09:53:00
4:53 AM,30.0,25.0,82,30.27,8.0,NW,8.1,-,N/A,,Overcast,320,2013-03-01 10:53:00
5:53 AM,28.4,24.8,86,30.23,7.0,NW,9.2,-,N/A,,Overcast,320,2013-03-01 11:53:00
6:53 AM,30.0,24.1,79,30.27,8.0,NNW,9.2,-,N/A,,Overcast,330,2013-03-01 12:53:00
7:53 AM,30.0,25.0,82,30.29,6.0,NNW,10.4,-,N/A,,Haze,340,2013-03-01 13:53:00
8:53 AM,30.9,26.1,82,30.30,7.0,North,11.5,-,N/A,,Overcast,360,2013-03-01 14:53:00
9:53 AM,30.9,25.0,79,30.32,8.0,North,13.8,-,N/A,,Overcast,10,2013-03-01 15:53:00
10:53 AM,32.0,24.1,73,30.32,9.0,North,15.0,-,N/A,,Overcast,350,2013-03-01 16:53:00
11:53 AM,33.1,24.1,70,30.32,9.0,North,12.7,-,N/A,,Overcast,350,2013-03-01 17:53:00
12:53 PM,33.1,25.0,72,30.31,8.0,North,15.0,-,N/A,,Overcast,350,2013-03-01 18:53:00
1:53 PM,34.0,25.0,70,30.31,8.0,North,15.0,-,N/A,,Overcast,350,2013-03-01 19:53:00
2:53 PM,34.0,24.1,67,30.30,9.0,NNW,16.1,25.3,N/A,,Overcast,340,2013-03-01 20:53:00
3:53 PM,33.1,21.9,64,30.30,10.0,North,16.1,21.9,N/A,,Overcast,360,2013-03-01 21:53:00
4:07 PM,33.8,21.2,60,30.27,10.0,North,16.1,23.0,N/A,,Overcast,360,2013-03-01 22:07:00
4:53 PM,33.8,21.2,60,30.27,10.0,NNW,18.4,24.2,N/A,,Mostly Cloudy,340,2013-03-01 22:53:00
5:53 PM,32.0,19.9,61,30.32,10.0,North,15.0,-,N/A,,Mostly Cloudy,350,2013-03-01 23:53:00
6:53 PM,30.9,21.9,69,30.35,10.0,North,11.5,-,N/A,,Mostly Cloudy,10,2013-03-02 00:53:00
7:53 PM,28.4,19.4,69,30.32,10.0,NNE,11.5,-,N/A,,Mostly Cloudy,20,2013-03-02 01:53:00
8:53 PM,28.0,19.0,69,30.37,10.0,North,8.1,-,N/A,,Scattered Clouds,10,2013-03-02 02:53:00
9:53 PM,26.1,19.0,75,30.38,10.0,North,4.6,-,N/A,,Partly Cloudy,350,2013-03-02 03:53:00
10:53 PM,23.0,18.0,81,30.40,10.0,NW,6.9,-,N/A,,Clear,310,2013-03-02 04:53:00
11:53 PM,21.9,17.1,82,30.39,10.0,NW,6.9,-,N/A,,Clear,320,2013-03-02 05:53:00